CFTIW TGPY-SVMC

Flight info

Callsign CFTIW
Flight time 7h 24m
Altitude 12000
Route DCT
Aircraft BE58/L-SDE3/1200

Departure

Time 2026-04-13 10:36
Airport Maurice Bishop International Airport (TGPY)

Arrival

Time 2026-04-13 18:01
Airport La Chinita International Airport (SVMC)
Time Latitude Longitude Altitude Speed Heading
2026-04-13 10:22 12.00581 -61.78758 37 ft 0 kts 271°
2026-04-13 10:29 12.00581 -61.78757 37 ft 2 kts 271°
2026-04-13 10:29 12.00580 -61.78742 37 ft 2 kts 271°
2026-04-13 10:29 12.00580 -61.78727 37 ft 2 kts 271°
2026-04-13 10:30 12.00580 -61.78726 37 ft 0 kts 271°
2026-04-13 10:30 12.00580 -61.78728 37 ft 1 kts 277°
2026-04-13 10:31 12.00597 -61.78722 36 ft 4 kts 101°
2026-04-13 10:31 12.00592 -61.78701 36 ft 11 kts 104°
2026-04-13 10:31 12.00565 -61.78624 36 ft 10 kts 121°
2026-04-13 10:31 12.00513 -61.78600 37 ft 10 kts 178°
2026-04-13 10:32 12.00481 -61.78601 38 ft 0 kts 180°
2026-04-13 10:32 12.00476 -61.78601 38 ft 5 kts 181°
2026-04-13 10:32 12.00420 -61.78614 40 ft 11 kts 229°
2026-04-13 10:33 12.00407 -61.78719 40 ft 20 kts 271°
2026-04-13 10:33 12.00410 -61.78907 39 ft 30 kts 272°
2026-04-13 10:33 12.00412 -61.79114 38 ft 29 kts 270°
2026-04-13 10:34 12.00414 -61.79523 31 ft 29 kts 270°
2026-04-13 10:34 12.00413 -61.79724 27 ft 25 kts 268°
2026-04-13 10:34 12.00442 -61.79824 26 ft 11 kts 310°
2026-04-13 10:34 12.00428 -61.79868 26 ft 8 kts 163°
2026-04-13 10:35 12.00415 -61.79830 25 ft 5 kts 89°
2026-04-13 10:35 12.00415 -61.79827 25 ft 0 kts 90°
2026-04-13 10:35 12.00413 -61.79760 26 ft 27 kts 89°
2026-04-13 10:36 12.00415 -61.79337 34 ft 92 kts 91°
2026-04-13 10:36 12.00419 -61.78545 154 ft 120 kts 88°
2026-04-13 10:36 12.00462 -61.77700 575 ft 114 kts 85°
2026-04-13 10:36 12.00543 -61.76926 1154 ft 106 kts 80°
2026-04-13 10:37 12.00665 -61.76213 1800 ft 94 kts 76°
2026-04-13 10:37 12.00887 -61.75590 2370 ft 93 kts 53°
2026-04-13 10:37 12.01483 -61.75331 2905 ft 108 kts 356°
2026-04-13 10:37 12.02122 -61.75763 3326 ft 124 kts 291°
2026-04-13 10:38 12.02053 -61.76605 3763 ft 121 kts 234°
2026-04-13 10:38 12.01688 -61.77439 4139 ft 127 kts 245°
2026-04-13 10:38 12.01344 -61.78255 4658 ft 125 kts 242°
2026-04-13 10:38 12.01012 -61.79084 5089 ft 126 kts 244°
2026-04-13 10:39 12.00674 -61.79912 5505 ft 126 kts 244°
2026-04-13 10:39 12.00361 -61.80753 5900 ft 127 kts 248°
2026-04-13 10:39 12.00175 -61.81321 6176 ft 127 kts 249°
2026-04-13 10:39 11.99902 -61.82178 6563 ft 127 kts 254°
2026-04-13 10:40 11.99809 -61.83073 6948 ft 127 kts 264°
2026-04-13 10:40 11.99711 -61.83967 7334 ft 126 kts 261°
2026-04-13 10:40 11.99603 -61.84853 7722 ft 125 kts 262°
2026-04-13 10:40 11.99495 -61.85731 8103 ft 124 kts 261°
2026-04-13 10:41 11.99384 -61.86608 8478 ft 124 kts 261°
2026-04-13 10:41 11.99273 -61.87481 8850 ft 124 kts 261°
2026-04-13 10:41 11.99164 -61.88351 9213 ft 123 kts 261°
2026-04-13 10:41 11.99053 -61.89218 9580 ft 123 kts 261°
2026-04-13 10:42 11.98942 -61.90081 9933 ft 122 kts 261°
2026-04-13 10:42 11.98831 -61.90942 10252 ft 122 kts 261°
2026-04-13 10:42 11.98722 -61.91801 10565 ft 122 kts 261°
2026-04-13 10:42 11.98612 -61.92657 10879 ft 121 kts 260°
2026-04-13 10:43 11.98503 -61.93510 11183 ft 121 kts 259°
2026-04-13 10:43 11.98393 -61.94363 11477 ft 121 kts 260°
2026-04-13 10:43 11.98283 -61.95217 11760 ft 121 kts 259°
2026-04-13 10:43 11.98174 -61.96075 12000 ft 126 kts 260°
2026-04-13 10:44 11.98053 -61.97028 12019 ft 144 kts 261°
2026-04-13 10:44 11.97925 -61.98086 12018 ft 156 kts 261°
2026-04-13 10:44 11.97782 -61.99208 12016 ft 162 kts 260°
2026-04-13 10:44 11.97633 -62.00361 12017 ft 165 kts 260°
2026-04-13 10:45 11.97483 -62.01535 12015 ft 167 kts 260°
2026-04-13 10:45 11.97527 -62.02718 12018 ft 171 kts 289°
2026-04-13 10:45 11.98235 -62.03711 12015 ft 175 kts 308°
2026-04-13 10:45 11.98915 -62.04732 12017 ft 173 kts 294°
2026-04-13 10:46 11.98991 -62.04890 12015 ft 173 kts 293°
2026-04-13 10:46 11.99273 -62.05672 12013 ft 172 kts 282°
2026-04-13 10:46 11.99380 -62.06878 12015 ft 170 kts 266°
2026-04-13 10:46 11.99330 -62.08066 12019 ft 170 kts 265°
2026-04-13 10:47 11.99279 -62.09271 12016 ft 170 kts 265°
2026-04-13 10:47 11.99232 -62.10477 12019 ft 170 kts 265°
2026-04-13 10:47 11.99187 -62.11682 12019 ft 170 kts 266°
2026-04-13 10:47 11.99140 -62.12889 12018 ft 170 kts 265°
2026-04-13 10:48 11.99095 -62.14098 12020 ft 170 kts 266°
2026-04-13 10:48 11.99049 -62.15305 12017 ft 170 kts 266°
2026-04-13 10:48 11.99003 -62.16511 12018 ft 170 kts 265°
2026-04-13 10:48 11.98957 -62.17719 12015 ft 170 kts 265°
2026-04-13 10:49 11.98912 -62.18926 12017 ft 170 kts 266°
2026-04-13 10:49 11.98865 -62.20137 12017 ft 170 kts 265°
2026-04-13 10:49 11.98818 -62.21347 12015 ft 171 kts 265°
2026-04-13 10:49 11.98771 -62.22556 12016 ft 170 kts 265°
2026-04-13 10:50 11.98726 -62.23762 12014 ft 170 kts 265°
2026-04-13 10:50 11.98679 -62.24968 12015 ft 170 kts 264°
2026-04-13 10:50 11.98634 -62.26173 12017 ft 170 kts 265°
2026-04-13 10:50 11.98587 -62.27376 12016 ft 170 kts 265°
2026-04-13 10:51 11.98541 -62.28579 12017 ft 170 kts 265°
2026-04-13 10:51 11.98496 -62.29782 12017 ft 169 kts 265°
2026-04-13 10:51 11.98449 -62.30985 12017 ft 170 kts 265°
2026-04-13 10:51 11.98401 -62.32188 12020 ft 170 kts 265°
2026-04-13 10:52 11.98356 -62.33392 12021 ft 170 kts 265°
2026-04-13 10:52 11.98309 -62.34601 12019 ft 170 kts 266°
2026-04-13 10:52 11.98262 -62.35808 12020 ft 170 kts 265°
2026-04-13 10:52 11.98216 -62.37015 12014 ft 170 kts 266°
2026-04-13 10:53 11.98169 -62.38223 12014 ft 170 kts 266°
2026-04-13 10:53 11.98123 -62.39427 12014 ft 170 kts 265°
2026-04-13 10:53 11.98075 -62.40633 12013 ft 170 kts 265°
2026-04-13 10:53 11.98028 -62.41840 12013 ft 170 kts 265°
2026-04-13 10:54 11.97981 -62.43045 12015 ft 170 kts 265°
2026-04-13 10:54 11.97935 -62.44250 12015 ft 170 kts 265°
2026-04-13 10:54 11.97887 -62.45456 12015 ft 170 kts 266°
2026-04-13 10:54 11.97840 -62.46663 12017 ft 170 kts 266°
2026-04-13 10:55 11.97794 -62.47852 12015 ft 170 kts 265°
2026-04-13 10:55 11.97747 -62.49059 12017 ft 170 kts 266°
2026-04-13 10:55 11.97699 -62.50268 12016 ft 170 kts 265°
2026-04-13 10:55 11.97652 -62.51476 12016 ft 170 kts 265°
2026-04-13 10:56 11.97604 -62.52684 12016 ft 170 kts 265°
2026-04-13 10:56 11.97557 -62.53892 12018 ft 170 kts 265°
2026-04-13 10:56 11.97509 -62.55098 12017 ft 170 kts 266°
2026-04-13 10:56 11.97462 -62.56303 12017 ft 170 kts 266°
2026-04-13 10:57 11.97414 -62.57510 12015 ft 170 kts 266°
2026-04-13 10:57 11.97367 -62.58718 12014 ft 170 kts 265°
2026-04-13 10:57 11.97319 -62.59925 12017 ft 170 kts 265°
2026-04-13 10:57 11.97272 -62.61129 12012 ft 170 kts 266°
2026-04-13 10:58 11.97223 -62.62331 12014 ft 169 kts 266°
2026-04-13 10:58 11.97174 -62.63533 12013 ft 169 kts 266°
2026-04-13 10:58 11.97126 -62.64735 12014 ft 169 kts 266°
2026-04-13 10:58 11.97080 -62.65940 12013 ft 170 kts 266°
2026-04-13 10:59 11.97032 -62.67144 12011 ft 170 kts 266°
2026-04-13 10:59 11.96984 -62.68348 12016 ft 169 kts 266°
2026-04-13 10:59 11.96935 -62.69547 12014 ft 169 kts 265°
2026-04-13 10:59 11.96888 -62.70749 12016 ft 169 kts 266°
2026-04-13 11:00 11.96842 -62.71933 12017 ft 169 kts 266°
2026-04-13 11:00 11.96794 -62.73136 12013 ft 170 kts 265°
2026-04-13 11:00 11.96744 -62.74341 12012 ft 169 kts 266°
2026-04-13 11:00 11.96696 -62.75541 12010 ft 169 kts 265°
2026-04-13 11:01 11.96647 -62.76744 12010 ft 169 kts 266°
2026-04-13 11:01 11.96600 -62.77945 12009 ft 169 kts 266°
2026-04-13 11:01 11.96552 -62.79146 12011 ft 169 kts 266°
2026-04-13 11:01 11.96504 -62.80349 12015 ft 170 kts 266°
2026-04-13 11:02 11.96454 -62.81551 12018 ft 170 kts 265°
2026-04-13 11:02 11.96407 -62.82756 12015 ft 170 kts 266°
2026-04-13 11:02 11.96358 -62.83959 12013 ft 170 kts 265°
2026-04-13 11:02 11.96309 -62.85161 12012 ft 169 kts 265°
2026-04-13 11:03 11.96260 -62.86363 12016 ft 170 kts 266°
2026-04-13 11:03 11.96210 -62.87566 12015 ft 169 kts 265°
2026-04-13 11:03 11.96163 -62.88767 12013 ft 169 kts 266°
2026-04-13 11:03 11.96115 -62.89968 12014 ft 169 kts 265°
2026-04-13 11:04 11.96065 -62.91167 12013 ft 169 kts 266°
2026-04-13 11:04 11.96016 -62.92365 12015 ft 169 kts 266°
2026-04-13 11:04 11.95968 -62.93565 12015 ft 169 kts 266°
2026-04-13 11:04 11.95919 -62.94766 12016 ft 169 kts 265°
2026-04-13 11:05 11.95869 -62.95966 12015 ft 169 kts 266°
2026-04-13 11:05 11.95820 -62.97166 12016 ft 169 kts 266°
2026-04-13 11:05 11.95771 -62.98367 12015 ft 169 kts 265°
2026-04-13 11:05 11.95722 -62.99566 12014 ft 169 kts 266°
2026-04-13 11:06 11.95673 -63.00766 12015 ft 170 kts 266°
2026-04-13 11:06 11.95624 -63.01972 12018 ft 170 kts 266°
2026-04-13 11:06 11.95574 -63.03161 12012 ft 170 kts 266°
2026-04-13 11:06 11.95525 -63.04363 12013 ft 169 kts 266°
2026-04-13 11:07 11.95476 -63.05567 12011 ft 169 kts 266°
2026-04-13 11:07 11.95426 -63.06767 12012 ft 169 kts 266°
2026-04-13 11:07 11.95377 -63.07967 12008 ft 169 kts 267°
2026-04-13 11:07 11.95327 -63.09166 12013 ft 169 kts 266°
2026-04-13 11:08 11.95278 -63.10366 12013 ft 169 kts 267°
2026-04-13 11:08 11.95228 -63.11570 12012 ft 169 kts 266°
2026-04-13 11:08 11.95178 -63.12773 12010 ft 170 kts 266°
2026-04-13 11:08 11.95128 -63.13977 12010 ft 169 kts 266°
2026-04-13 11:09 11.95078 -63.15177 12009 ft 169 kts 266°
2026-04-13 11:09 11.95029 -63.16378 12014 ft 169 kts 266°
2026-04-13 11:09 11.94979 -63.17578 12012 ft 169 kts 266°
2026-04-13 11:09 11.94928 -63.18778 12012 ft 169 kts 266°
2026-04-13 11:10 11.94878 -63.19983 12012 ft 170 kts 266°
2026-04-13 11:10 11.94828 -63.21183 12010 ft 169 kts 266°
2026-04-13 11:10 11.94778 -63.22383 12013 ft 169 kts 266°
2026-04-13 11:10 11.94727 -63.23585 12011 ft 169 kts 266°
2026-04-13 11:11 11.94677 -63.24785 12011 ft 169 kts 265°
2026-04-13 11:11 11.94627 -63.25985 12010 ft 169 kts 266°
2026-04-13 11:11 11.94576 -63.27185 12011 ft 169 kts 266°
2026-04-13 11:11 11.94528 -63.28366 12012 ft 169 kts 266°
2026-04-13 11:12 11.94477 -63.29564 12013 ft 169 kts 266°
2026-04-13 11:12 11.94426 -63.30766 12013 ft 169 kts 266°
2026-04-13 11:12 11.94377 -63.31967 12011 ft 170 kts 266°
2026-04-13 11:12 11.94326 -63.33169 12016 ft 169 kts 266°
2026-04-13 11:13 11.94274 -63.34372 12012 ft 170 kts 266°
2026-04-13 11:13 11.94223 -63.35573 12011 ft 169 kts 266°
2026-04-13 11:13 11.94172 -63.36775 12010 ft 169 kts 265°
2026-04-13 11:13 11.94123 -63.37979 12012 ft 170 kts 266°
2026-04-13 11:14 11.94072 -63.39182 12012 ft 170 kts 265°
2026-04-13 11:14 11.94020 -63.40384 12011 ft 170 kts 266°
2026-04-13 11:14 11.93969 -63.41590 12012 ft 170 kts 266°
2026-04-13 11:14 11.93917 -63.42796 12013 ft 170 kts 266°
2026-04-13 11:15 11.93866 -63.44001 12009 ft 170 kts 266°
2026-04-13 11:15 11.93816 -63.45208 12011 ft 170 kts 266°
2026-04-13 11:15 11.93764 -63.46410 12012 ft 170 kts 266°
2026-04-13 11:15 11.93712 -63.47615 12011 ft 170 kts 266°
2026-04-13 11:16 11.93661 -63.48820 12012 ft 170 kts 266°
2026-04-13 11:16 11.93610 -63.50026 12013 ft 170 kts 266°
2026-04-13 11:16 11.93558 -63.51233 12013 ft 170 kts 266°
2026-04-13 11:16 11.93507 -63.52426 12013 ft 171 kts 266°
2026-04-13 11:17 11.93453 -63.53652 12013 ft 170 kts 266°
2026-04-13 11:17 11.93402 -63.54841 12012 ft 170 kts 266°
2026-04-13 11:17 11.93351 -63.56047 12010 ft 170 kts 266°
2026-04-13 11:17 11.93299 -63.57252 12011 ft 170 kts 266°
2026-04-13 11:18 11.93248 -63.58456 12012 ft 170 kts 266°
2026-04-13 11:18 11.93196 -63.59660 12010 ft 170 kts 266°
2026-04-13 11:18 11.93144 -63.60869 12013 ft 170 kts 266°
2026-04-13 11:18 11.93092 -63.62073 12012 ft 170 kts 265°
2026-04-13 11:19 11.93039 -63.63280 12011 ft 170 kts 266°
2026-04-13 11:19 11.92987 -63.64488 12012 ft 170 kts 266°
2026-04-13 11:19 11.92935 -63.65692 12013 ft 170 kts 265°
2026-04-13 11:19 11.92882 -63.66902 12010 ft 170 kts 266°
2026-04-13 11:20 11.92830 -63.68114 12010 ft 171 kts 266°
2026-04-13 11:20 11.92778 -63.69325 12012 ft 171 kts 266°
2026-04-13 11:20 11.92726 -63.70518 12013 ft 171 kts 265°
2026-04-13 11:20 11.92673 -63.71727 12009 ft 171 kts 266°
2026-04-13 11:21 11.92619 -63.72941 12010 ft 171 kts 266°
2026-04-13 11:21 11.92567 -63.74154 12011 ft 171 kts 266°
2026-04-13 11:21 11.92515 -63.75365 12010 ft 171 kts 265°
2026-04-13 11:21 11.92462 -63.76576 12011 ft 171 kts 267°
2026-04-13 11:22 11.92409 -63.77786 12010 ft 171 kts 266°
2026-04-13 11:22 11.92355 -63.78997 12011 ft 171 kts 266°
2026-04-13 11:22 11.92303 -63.80211 12013 ft 171 kts 266°
2026-04-13 11:22 11.92250 -63.81422 12011 ft 171 kts 266°
2026-04-13 11:23 11.92196 -63.82637 12011 ft 171 kts 266°
2026-04-13 11:23 11.92142 -63.83852 12008 ft 171 kts 266°
2026-04-13 11:23 11.92089 -63.85065 12012 ft 171 kts 266°
2026-04-13 11:23 11.92035 -63.86279 12011 ft 171 kts 266°
2026-04-13 11:24 11.91982 -63.87493 12010 ft 171 kts 266°
2026-04-13 11:24 11.91929 -63.88706 12012 ft 171 kts 266°
2026-04-13 11:24 11.91876 -63.89906 12010 ft 172 kts 266°
2026-04-13 11:24 11.91821 -63.91122 12009 ft 172 kts 266°
2026-04-13 11:25 11.91768 -63.92339 12010 ft 172 kts 266°
2026-04-13 11:25 11.91714 -63.93558 12009 ft 172 kts 266°
2026-04-13 11:25 11.91660 -63.94774 12010 ft 171 kts 266°
2026-04-13 11:25 11.91607 -63.95988 12011 ft 171 kts 266°
2026-04-13 11:26 11.91553 -63.97201 12010 ft 171 kts 265°
2026-04-13 11:26 11.91498 -63.98415 12010 ft 171 kts 266°
2026-04-13 11:26 11.91463 -63.99219 12011 ft 172 kts 266°
2026-04-13 11:26 11.91409 -64.00437 12010 ft 172 kts 266°
2026-04-13 11:27 11.91354 -64.01656 12010 ft 172 kts 266°
2026-04-13 11:27 11.91300 -64.02873 12005 ft 172 kts 266°
2026-04-13 11:27 11.91246 -64.04091 12009 ft 171 kts 265°
2026-04-13 11:27 11.91191 -64.05308 12007 ft 172 kts 266°
2026-04-13 11:28 11.91136 -64.06528 12007 ft 172 kts 266°
2026-04-13 11:28 11.91082 -64.07743 12009 ft 172 kts 266°
2026-04-13 11:28 11.91027 -64.08961 12009 ft 172 kts 266°
2026-04-13 11:28 11.90972 -64.10181 12010 ft 172 kts 266°
2026-04-13 11:29 11.90918 -64.11402 12008 ft 172 kts 267°
2026-04-13 11:29 11.90863 -64.12621 12007 ft 172 kts 266°
2026-04-13 11:29 11.90809 -64.13827 12007 ft 172 kts 266°
2026-04-13 11:29 11.90754 -64.15048 12007 ft 172 kts 266°
2026-04-13 11:30 11.90699 -64.16269 12008 ft 172 kts 266°
2026-04-13 11:30 11.90644 -64.17488 12007 ft 172 kts 266°
2026-04-13 11:30 11.90588 -64.18706 12008 ft 172 kts 266°
2026-04-13 11:30 11.90533 -64.19926 12011 ft 172 kts 266°
2026-04-13 11:31 11.90478 -64.21151 12009 ft 172 kts 266°
2026-04-13 11:31 11.90423 -64.22372 12011 ft 172 kts 266°
2026-04-13 11:31 11.90367 -64.23594 12010 ft 172 kts 266°
2026-04-13 11:31 11.90312 -64.24816 12009 ft 172 kts 266°
2026-04-13 11:32 11.90256 -64.26036 12010 ft 172 kts 266°
2026-04-13 11:32 11.90201 -64.27259 12010 ft 172 kts 266°
2026-04-13 11:32 11.90145 -64.28479 12012 ft 172 kts 266°
2026-04-13 11:32 11.90090 -64.29702 12011 ft 172 kts 266°
2026-04-13 11:33 11.90034 -64.30921 12012 ft 172 kts 266°
2026-04-13 11:33 11.89978 -64.32145 12011 ft 172 kts 266°
2026-04-13 11:33 11.89866 -64.34587 12010 ft 172 kts 266°
2026-04-13 11:34 11.89810 -64.35810 12010 ft 172 kts 266°
2026-04-13 11:34 11.89755 -64.37014 12010 ft 172 kts 266°
2026-04-13 11:34 11.89699 -64.38236 12010 ft 172 kts 266°
2026-04-13 11:34 11.89643 -64.39461 12006 ft 172 kts 266°
2026-04-13 11:35 11.89586 -64.40686 12007 ft 173 kts 266°
2026-04-13 11:35 11.89530 -64.41908 12007 ft 173 kts 266°
2026-04-13 11:35 11.89474 -64.43132 12008 ft 172 kts 266°
2026-04-13 11:35 11.89418 -64.44354 12009 ft 172 kts 267°
2026-04-13 11:36 11.89361 -64.45578 12011 ft 173 kts 266°
2026-04-13 11:36 11.89304 -64.46800 12009 ft 172 kts 267°
2026-04-13 11:36 11.89248 -64.48023 12009 ft 172 kts 266°
2026-04-13 11:36 11.89192 -64.49245 12009 ft 172 kts 266°
2026-04-13 11:37 11.89135 -64.50465 12009 ft 172 kts 266°
2026-04-13 11:37 11.89079 -64.51688 12009 ft 172 kts 266°
2026-04-13 11:37 11.89022 -64.52909 12008 ft 172 kts 266°
2026-04-13 11:37 11.88966 -64.54133 12009 ft 172 kts 266°
2026-04-13 11:38 11.88908 -64.55353 12008 ft 172 kts 266°
2026-04-13 11:38 11.88852 -64.56558 12010 ft 172 kts 267°
2026-04-13 11:38 11.88795 -64.57781 12009 ft 172 kts 267°
2026-04-13 11:38 11.88739 -64.59005 12010 ft 173 kts 266°
2026-04-13 11:39 11.88681 -64.60229 12009 ft 173 kts 266°
2026-04-13 11:39 11.88624 -64.61460 12011 ft 173 kts 266°
2026-04-13 11:39 11.88567 -64.62690 12009 ft 173 kts 266°
2026-04-13 11:39 11.88510 -64.63917 12011 ft 173 kts 266°
2026-04-13 11:40 11.88453 -64.65138 12010 ft 172 kts 266°
2026-04-13 11:40 11.88394 -64.66359 12009 ft 172 kts 266°
2026-04-13 11:40 11.88337 -64.67580 12009 ft 172 kts 267°
2026-04-13 11:40 11.88280 -64.68804 12006 ft 172 kts 266°
2026-04-13 11:41 11.88222 -64.70026 12006 ft 172 kts 266°
2026-04-13 11:41 11.88165 -64.71249 12006 ft 172 kts 266°
2026-04-13 11:41 11.88107 -64.72470 12007 ft 172 kts 266°
2026-04-13 11:41 11.88050 -64.73693 12006 ft 172 kts 266°
2026-04-13 11:42 11.87993 -64.74915 12005 ft 172 kts 266°
2026-04-13 11:42 11.87935 -64.76134 12007 ft 172 kts 267°
2026-04-13 11:42 11.87877 -64.77358 12004 ft 172 kts 267°
2026-04-13 11:42 11.87819 -64.78579 12006 ft 172 kts 267°
2026-04-13 11:43 11.87762 -64.79800 12005 ft 172 kts 266°
2026-04-13 11:43 11.87703 -64.81021 12006 ft 172 kts 266°
2026-04-13 11:43 11.87646 -64.82243 12006 ft 172 kts 266°
2026-04-13 11:43 11.87588 -64.83463 12005 ft 172 kts 266°
2026-04-13 11:44 11.87529 -64.84684 12004 ft 172 kts 266°
2026-04-13 11:44 11.87471 -64.85905 12004 ft 172 kts 267°
2026-04-13 11:44 11.87413 -64.87127 12004 ft 172 kts 267°
2026-04-13 11:44 11.87356 -64.88332 12008 ft 172 kts 266°
2026-04-13 11:45 11.87297 -64.89569 12009 ft 172 kts 267°
2026-04-13 11:45 11.87239 -64.90774 12008 ft 172 kts 267°
2026-04-13 11:45 11.87181 -64.91996 12007 ft 172 kts 267°
2026-04-13 11:45 11.87123 -64.93214 12006 ft 172 kts 266°
2026-04-13 11:46 11.87065 -64.94435 12007 ft 172 kts 267°
2026-04-13 11:46 11.87006 -64.95657 12007 ft 172 kts 267°
2026-04-13 11:46 11.86948 -64.96876 12009 ft 172 kts 267°
2026-04-13 11:46 11.86889 -64.98097 12007 ft 172 kts 266°
2026-04-13 11:47 11.86830 -64.99316 12005 ft 172 kts 267°
2026-04-13 11:47 11.86771 -65.00533 12004 ft 172 kts 267°
2026-04-13 11:47 11.86713 -65.01756 12003 ft 172 kts 266°
2026-04-13 11:47 11.86654 -65.02976 12003 ft 172 kts 266°
2026-04-13 11:48 11.86595 -65.04199 12007 ft 172 kts 266°
2026-04-13 11:48 11.86537 -65.05404 12004 ft 172 kts 267°
2026-04-13 11:48 11.86479 -65.06624 12004 ft 172 kts 266°
2026-04-13 11:48 11.86419 -65.07845 12006 ft 172 kts 267°
2026-04-13 11:49 11.86360 -65.09066 12007 ft 172 kts 267°
2026-04-13 11:49 11.86301 -65.10289 12005 ft 172 kts 266°
2026-04-13 11:49 11.86242 -65.11509 12008 ft 172 kts 267°
2026-04-13 11:49 11.86183 -65.12727 12005 ft 172 kts 266°
2026-04-13 11:50 11.86124 -65.13949 12006 ft 172 kts 267°
2026-04-13 11:50 11.86064 -65.15169 12005 ft 172 kts 267°
2026-04-13 11:50 11.86005 -65.16392 12008 ft 172 kts 267°
2026-04-13 11:50 11.85945 -65.17614 12006 ft 172 kts 267°
2026-04-13 11:51 11.85886 -65.18834 12008 ft 172 kts 266°
2026-04-13 11:51 11.85827 -65.20054 12007 ft 172 kts 267°
2026-04-13 11:51 11.85767 -65.21271 12007 ft 172 kts 267°
2026-04-13 11:51 11.85708 -65.22472 12005 ft 172 kts 267°
2026-04-13 11:52 11.85648 -65.23706 12006 ft 172 kts 267°
2026-04-13 11:52 11.85590 -65.24908 12005 ft 172 kts 267°
2026-04-13 11:52 11.85530 -65.26123 12006 ft 172 kts 266°
2026-04-13 11:52 11.85470 -65.27342 12005 ft 172 kts 267°
2026-04-13 11:53 11.85410 -65.28559 12006 ft 172 kts 267°
2026-04-13 11:53 11.85350 -65.29780 12005 ft 172 kts 267°
2026-04-13 11:53 11.85290 -65.30998 12006 ft 172 kts 266°
2026-04-13 11:53 11.85231 -65.32216 12008 ft 172 kts 267°
2026-04-13 11:54 11.85171 -65.33434 12005 ft 172 kts 266°
2026-04-13 11:54 11.85110 -65.34651 12004 ft 172 kts 267°
2026-04-13 11:54 11.85051 -65.35867 12003 ft 172 kts 267°
2026-04-13 11:54 11.84990 -65.37082 12004 ft 172 kts 266°
2026-04-13 11:55 11.84930 -65.38299 12007 ft 172 kts 267°
2026-04-13 11:55 11.84870 -65.39515 12006 ft 171 kts 266°
2026-04-13 11:55 11.84811 -65.40731 12005 ft 172 kts 267°
2026-04-13 11:55 11.84750 -65.41946 12003 ft 172 kts 267°
2026-04-13 11:56 11.84690 -65.43165 12005 ft 172 kts 267°
2026-04-13 11:56 11.84629 -65.44381 12004 ft 172 kts 267°
2026-04-13 11:56 11.84569 -65.45596 12004 ft 172 kts 267°
2026-04-13 11:56 11.84508 -65.46816 12004 ft 172 kts 267°
2026-04-13 11:57 11.84447 -65.48034 12000 ft 172 kts 267°
2026-04-13 11:57 11.84388 -65.49234 12001 ft 172 kts 267°
2026-04-13 11:57 11.84328 -65.50453 11999 ft 172 kts 267°
2026-04-13 11:57 11.84267 -65.51670 12004 ft 172 kts 267°
2026-04-13 11:58 11.84206 -65.52884 12004 ft 172 kts 267°
2026-04-13 11:58 11.84145 -65.54101 12001 ft 171 kts 267°
2026-04-13 11:58 11.84084 -65.55317 12003 ft 172 kts 267°
2026-04-13 11:58 11.84024 -65.56533 12002 ft 171 kts 267°
2026-04-13 11:59 11.83962 -65.57749 12002 ft 171 kts 267°
2026-04-13 11:59 11.83902 -65.58962 12003 ft 171 kts 267°
2026-04-13 11:59 11.83841 -65.60178 12004 ft 171 kts 267°
2026-04-13 11:59 11.83780 -65.61393 12004 ft 171 kts 267°
2026-04-13 12:00 11.83719 -65.62609 12002 ft 171 kts 267°
2026-04-13 12:00 11.83658 -65.63825 11999 ft 171 kts 267°
2026-04-13 12:00 11.83596 -65.65040 12001 ft 171 kts 267°
2026-04-13 12:00 11.83536 -65.66252 11996 ft 171 kts 267°
2026-04-13 12:01 11.83475 -65.67466 11995 ft 171 kts 267°
2026-04-13 12:01 11.83413 -65.68677 11996 ft 171 kts 267°
2026-04-13 12:01 11.83351 -65.69889 11995 ft 171 kts 267°
2026-04-13 12:01 11.83291 -65.71098 11998 ft 171 kts 267°
2026-04-13 12:02 11.83229 -65.72309 11999 ft 171 kts 267°
2026-04-13 12:02 11.83168 -65.73521 11997 ft 171 kts 267°
2026-04-13 12:02 11.83107 -65.74736 11999 ft 171 kts 267°
2026-04-13 12:02 11.83044 -65.75948 11999 ft 171 kts 267°
2026-04-13 12:03 11.82983 -65.77164 11999 ft 171 kts 267°
2026-04-13 12:03 11.82922 -65.78377 11996 ft 171 kts 267°
2026-04-13 12:03 11.82860 -65.79574 11999 ft 171 kts 267°
2026-04-13 12:03 11.82799 -65.80786 11999 ft 171 kts 267°
2026-04-13 12:04 11.82737 -65.82000 11998 ft 171 kts 267°
2026-04-13 12:04 11.82675 -65.83213 11999 ft 171 kts 267°
2026-04-13 12:04 11.82613 -65.84424 11997 ft 171 kts 267°
2026-04-13 12:04 11.82552 -65.85639 12000 ft 171 kts 267°
2026-04-13 12:05 11.82490 -65.86850 11977 ft 172 kts 267°
2026-04-13 12:05 11.82428 -65.88112 11512 ft 180 kts 267°
2026-04-13 12:05 11.82364 -65.89396 11041 ft 182 kts 267°
2026-04-13 12:05 11.82296 -65.90691 10575 ft 183 kts 267°
2026-04-13 12:06 11.82229 -65.91995 10122 ft 184 kts 268°
2026-04-13 12:06 11.82162 -65.93304 9645 ft 185 kts 268°
2026-04-13 12:06 11.82094 -65.94616 9150 ft 185 kts 268°
2026-04-13 12:06 11.82027 -65.95928 8656 ft 185 kts 268°
2026-04-13 12:07 11.81960 -65.97238 8171 ft 184 kts 268°
2026-04-13 12:07 11.81893 -65.98543 7691 ft 184 kts 267°
2026-04-13 12:07 11.81826 -65.99842 7220 ft 183 kts 267°
2026-04-13 12:07 11.81889 -66.01132 6758 ft 182 kts 279°
2026-04-13 12:08 11.82108 -66.02404 6291 ft 182 kts 281°
2026-04-13 12:08 11.82334 -66.03676 5805 ft 183 kts 281°
2026-04-13 12:08 11.82560 -66.04966 5327 ft 186 kts 281°
2026-04-13 12:08 11.82783 -66.06244 4845 ft 180 kts 281°
2026-04-13 12:09 11.82995 -66.07503 4353 ft 180 kts 280°
2026-04-13 12:09 11.83211 -66.08757 3861 ft 177 kts 279°
2026-04-13 12:09 11.83284 -66.09997 2951 ft 186 kts 261°
2026-04-13 12:09 11.83016 -66.11331 2112 ft 189 kts 255°
2026-04-13 12:10 11.82647 -66.12604 1239 ft 187 kts 245°
2026-04-13 12:10 11.82217 -66.13830 650 ft 177 kts 247°
2026-04-13 12:10 11.81849 -66.14923 371 ft 151 kts 249°
2026-04-13 12:10 11.81561 -66.15856 231 ft 124 kts 248°
2026-04-13 12:11 11.81328 -66.16576 66 ft 96 kts 243°
2026-04-13 12:11 11.81109 -66.17183 8 ft 72 kts 256°
2026-04-13 12:11 11.80991 -66.17538 7 ft 45 kts 251°
2026-04-13 12:11 11.80902 -66.17834 3 ft 42 kts 250°
2026-04-13 12:12 11.80805 -66.18120 8 ft 47 kts 250°
2026-04-13 12:12 11.80705 -66.18433 13 ft 43 kts 250°
2026-04-13 12:12 11.80622 -66.18714 13 ft 41 kts 250°
2026-04-13 12:12 11.80534 -66.18975 10 ft 37 kts 250°
2026-04-13 12:13 11.80461 -66.19205 8 ft 28 kts 255°
2026-04-13 12:13 11.80440 -66.19362 5 ft 20 kts 268°
2026-04-13 12:13 11.80425 -66.19427 6 ft 5 kts 230°
2026-04-13 12:13 11.80420 -66.19433 6 ft 0 kts 228°
2026-04-13 12:21 11.80421 -66.19432 6 ft 3 kts 228°
2026-04-13 12:21 11.80434 -66.19418 6 ft 3 kts 228°
2026-04-13 12:21 11.80436 -66.19415 5 ft 0 kts 228°
2026-04-13 12:23 11.80427 -66.19418 6 ft 6 kts 165°
2026-04-13 12:23 11.80419 -66.19367 5 ft 8 kts 90°
2026-04-13 12:23 11.80431 -66.19294 6 ft 14 kts 76°
2026-04-13 12:23 11.80457 -66.19208 8 ft 10 kts 71°
2026-04-13 12:24 11.80509 -66.19045 10 ft 51 kts 72°
2026-04-13 12:24 11.80707 -66.18493 48 ft 108 kts 70°
2026-04-13 12:24 11.80970 -66.17738 458 ft 114 kts 73°
2026-04-13 12:24 11.81193 -66.17004 1052 ft 105 kts 78°
2026-04-13 12:25 11.81121 -66.16342 1892 ft 93 kts 109°
2026-04-13 12:25 11.80592 -66.15934 2496 ft 114 kts 175°
2026-04-13 12:25 11.80028 -66.16511 3086 ft 132 kts 256°
2026-04-13 12:25 11.80001 -66.17444 3698 ft 124 kts 276°
2026-04-13 12:26 11.80075 -66.18317 4295 ft 128 kts 273°
2026-04-13 12:26 11.80153 -66.19227 4852 ft 129 kts 277°
2026-04-13 12:26 11.80239 -66.20126 5398 ft 124 kts 274°
2026-04-13 12:26 11.80201 -66.20966 5956 ft 114 kts 258°
2026-04-13 12:27 11.80036 -66.21750 6431 ft 112 kts 259°
2026-04-13 12:27 11.79711 -66.23309 7234 ft 113 kts 258°
2026-04-13 12:27 11.79544 -66.24100 7610 ft 114 kts 258°
2026-04-13 12:28 11.79373 -66.24896 7985 ft 115 kts 258°
2026-04-13 12:28 11.79200 -66.25698 8360 ft 116 kts 258°
2026-04-13 12:28 11.79027 -66.26507 8729 ft 117 kts 258°
2026-04-13 12:28 11.78851 -66.27322 9093 ft 118 kts 258°
2026-04-13 12:29 11.78675 -66.28142 9457 ft 119 kts 258°
2026-04-13 12:29 11.78496 -66.28972 9820 ft 120 kts 258°
2026-04-13 12:29 11.78316 -66.29806 10150 ft 120 kts 258°
2026-04-13 12:29 11.78137 -66.30640 10480 ft 120 kts 258°
2026-04-13 12:30 11.77958 -66.31472 10806 ft 120 kts 258°
2026-04-13 12:30 11.77779 -66.32303 11130 ft 120 kts 258°
2026-04-13 12:30 11.77600 -66.33133 11451 ft 120 kts 258°
2026-04-13 12:30 11.77421 -66.33959 11773 ft 119 kts 258°
2026-04-13 12:31 11.77242 -66.34784 12001 ft 128 kts 258°
2026-04-13 12:31 11.77042 -66.35756 12015 ft 147 kts 259°
2026-04-13 12:31 11.76819 -66.36819 12016 ft 158 kts 258°
2026-04-13 12:31 11.76579 -66.37924 12009 ft 165 kts 258°
2026-04-13 12:32 11.76329 -66.39079 12000 ft 168 kts 258°
2026-04-13 12:32 11.76077 -66.40245 12001 ft 169 kts 258°
2026-04-13 12:32 11.75821 -66.41424 11998 ft 170 kts 258°
2026-04-13 12:32 11.75650 -66.42215 11997 ft 170 kts 258°
2026-04-13 12:33 11.75524 -66.42803 12000 ft 171 kts 258°
2026-04-13 12:33 11.75268 -66.43987 11998 ft 171 kts 258°
2026-04-13 12:33 11.75012 -66.45170 11998 ft 171 kts 258°
2026-04-13 12:33 11.74754 -66.46359 12000 ft 171 kts 258°
2026-04-13 12:34 11.74499 -66.47545 11999 ft 171 kts 258°
2026-04-13 12:34 11.74241 -66.48734 11999 ft 171 kts 258°
2026-04-13 12:34 11.73985 -66.49924 11998 ft 171 kts 258°
2026-04-13 12:34 11.73728 -66.51114 12000 ft 171 kts 258°
2026-04-13 12:35 11.73471 -66.52298 12002 ft 171 kts 258°
2026-04-13 12:35 11.73214 -66.53485 12000 ft 171 kts 258°
2026-04-13 12:35 11.72958 -66.54670 11999 ft 171 kts 258°
2026-04-13 12:35 11.72706 -66.55838 12000 ft 171 kts 258°
2026-04-13 12:36 11.72448 -66.57024 12001 ft 171 kts 258°
2026-04-13 12:36 11.72192 -66.58212 11999 ft 171 kts 258°
2026-04-13 12:36 11.71935 -66.59396 12000 ft 171 kts 258°
2026-04-13 12:36 11.71678 -66.60583 11998 ft 171 kts 258°
2026-04-13 12:37 11.71421 -66.61769 12000 ft 171 kts 258°
2026-04-13 12:37 11.71164 -66.62956 12000 ft 171 kts 258°
2026-04-13 12:37 11.70907 -66.64142 12001 ft 171 kts 258°
2026-04-13 12:37 11.70650 -66.65327 12000 ft 171 kts 258°
2026-04-13 12:38 11.70393 -66.66514 11999 ft 171 kts 258°
2026-04-13 12:38 11.70136 -66.67700 12000 ft 171 kts 258°
2026-04-13 12:38 11.69879 -66.68885 11999 ft 171 kts 258°
2026-04-13 12:38 11.69632 -66.70074 12000 ft 171 kts 262°
2026-04-13 12:39 11.69496 -66.71278 12001 ft 171 kts 265°
2026-04-13 12:39 11.69380 -66.72486 12002 ft 171 kts 265°
2026-04-13 12:39 11.69266 -66.73678 12002 ft 171 kts 265°
2026-04-13 12:39 11.69150 -66.74888 12002 ft 171 kts 265°
2026-04-13 12:40 11.69035 -66.76094 12003 ft 171 kts 265°
2026-04-13 12:40 11.68920 -66.77300 12000 ft 171 kts 265°
2026-04-13 12:40 11.68805 -66.78507 12001 ft 171 kts 265°
2026-04-13 12:40 11.68690 -66.79712 12001 ft 171 kts 265°
2026-04-13 12:41 11.68575 -66.80919 12000 ft 171 kts 265°
2026-04-13 12:41 11.68460 -66.82129 12001 ft 171 kts 265°
2026-04-13 12:41 11.68347 -66.83336 12002 ft 171 kts 265°
2026-04-13 12:41 11.68232 -66.84545 11998 ft 171 kts 265°
2026-04-13 12:42 11.68120 -66.85752 11999 ft 171 kts 265°
2026-04-13 12:42 11.68007 -66.86959 12000 ft 171 kts 265°
2026-04-13 12:42 11.67893 -66.88166 12000 ft 171 kts 265°
2026-04-13 12:42 11.67779 -66.89370 11997 ft 171 kts 265°
2026-04-13 12:43 11.67666 -66.90579 11997 ft 171 kts 265°
2026-04-13 12:43 11.67553 -66.91785 11995 ft 171 kts 265°
2026-04-13 12:43 11.67442 -66.92992 11996 ft 171 kts 265°
2026-04-13 12:43 11.67330 -66.94198 12000 ft 171 kts 265°
2026-04-13 12:44 11.67220 -66.95403 12001 ft 171 kts 265°
2026-04-13 12:44 11.67110 -66.96610 11998 ft 171 kts 265°
2026-04-13 12:44 11.67000 -66.97816 11999 ft 171 kts 265°
2026-04-13 12:44 11.66891 -66.99006 12001 ft 171 kts 265°
2026-04-13 12:45 11.66781 -67.00213 11999 ft 171 kts 265°
2026-04-13 12:45 11.66671 -67.01417 11999 ft 171 kts 265°
2026-04-13 12:45 11.66562 -67.02623 11999 ft 171 kts 265°
2026-04-13 12:45 11.66454 -67.03829 11999 ft 170 kts 265°
2026-04-13 12:46 11.66422 -67.04187 11999 ft 170 kts 265°
2026-04-13 12:46 11.66313 -67.05393 11998 ft 170 kts 265°
2026-04-13 12:46 11.66204 -67.06594 11997 ft 170 kts 265°
2026-04-13 12:46 11.66095 -67.07795 11998 ft 170 kts 265°
2026-04-13 12:47 11.65987 -67.08995 11998 ft 170 kts 265°
2026-04-13 12:47 11.65881 -67.10199 11997 ft 170 kts 265°
2026-04-13 12:47 11.65774 -67.11402 11999 ft 170 kts 265°
2026-04-13 12:47 11.65668 -67.12605 11999 ft 170 kts 265°
2026-04-13 12:48 11.65563 -67.13806 12000 ft 170 kts 265°
2026-04-13 12:48 11.65456 -67.15009 11994 ft 170 kts 265°
2026-04-13 12:48 11.65350 -67.16210 11994 ft 170 kts 265°
2026-04-13 12:48 11.65245 -67.17398 11996 ft 170 kts 265°
2026-04-13 12:49 11.65139 -67.18601 11997 ft 171 kts 265°
2026-04-13 12:49 11.65033 -67.19806 11994 ft 171 kts 265°
2026-04-13 12:49 11.64926 -67.21027 11997 ft 171 kts 265°
2026-04-13 12:49 11.64821 -67.22216 11997 ft 170 kts 265°
2026-04-13 12:50 11.64718 -67.23416 11997 ft 170 kts 265°
2026-04-13 12:50 11.64612 -67.24617 11993 ft 170 kts 265°
2026-04-13 12:50 11.64508 -67.25819 11996 ft 170 kts 265°
2026-04-13 12:50 11.64402 -67.27023 11995 ft 170 kts 265°
2026-04-13 12:51 11.64297 -67.28229 11995 ft 171 kts 265°
2026-04-13 12:51 11.64192 -67.29435 11994 ft 171 kts 265°
2026-04-13 12:51 11.64088 -67.30642 11996 ft 171 kts 265°
2026-04-13 12:51 11.63985 -67.31847 11993 ft 170 kts 265°
2026-04-13 12:52 11.63882 -67.33052 11996 ft 170 kts 265°
2026-04-13 12:52 11.63779 -67.34255 11995 ft 170 kts 265°
2026-04-13 12:52 11.63676 -67.35458 11996 ft 170 kts 265°
2026-04-13 12:52 11.63573 -67.36662 11996 ft 170 kts 265°
2026-04-13 12:53 11.63470 -67.37867 11997 ft 170 kts 265°
2026-04-13 12:53 11.63368 -67.39070 11997 ft 170 kts 265°
2026-04-13 12:53 11.63266 -67.40274 11994 ft 170 kts 265°
2026-04-13 12:53 11.63165 -67.41480 11994 ft 171 kts 265°
2026-04-13 12:54 11.63065 -67.42685 11992 ft 170 kts 265°
2026-04-13 12:54 11.62965 -67.43871 11992 ft 171 kts 265°
2026-04-13 12:54 11.62863 -67.45076 11990 ft 171 kts 265°
2026-04-13 12:54 11.62760 -67.46285 11992 ft 171 kts 265°
2026-04-13 12:55 11.62660 -67.47490 11991 ft 171 kts 265°
2026-04-13 12:55 11.62561 -67.48696 11992 ft 171 kts 265°
2026-04-13 12:55 11.62463 -67.49902 11990 ft 170 kts 265°
2026-04-13 12:55 11.62363 -67.51106 11994 ft 170 kts 265°
2026-04-13 12:56 11.62262 -67.52310 11995 ft 170 kts 265°
2026-04-13 12:56 11.62162 -67.53513 11993 ft 170 kts 265°
2026-04-13 12:56 11.62062 -67.54719 11994 ft 171 kts 265°
2026-04-13 12:56 11.61962 -67.55924 11994 ft 171 kts 265°
2026-04-13 12:57 11.61862 -67.57131 11994 ft 171 kts 265°
2026-04-13 12:57 11.61761 -67.58341 11993 ft 171 kts 265°
2026-04-13 12:57 11.61662 -67.59549 11994 ft 171 kts 265°
2026-04-13 12:57 11.61563 -67.60754 11993 ft 171 kts 265°
2026-04-13 12:58 11.61462 -67.61959 11994 ft 171 kts 265°
2026-04-13 12:58 11.61362 -67.63165 11990 ft 170 kts 265°
2026-04-13 12:58 11.61261 -67.64372 11992 ft 170 kts 265°
2026-04-13 12:58 11.61162 -67.65578 11990 ft 171 kts 265°
2026-04-13 12:59 11.61063 -67.66782 11994 ft 170 kts 265°
2026-04-13 12:59 11.60964 -67.67988 11993 ft 171 kts 265°
2026-04-13 12:59 11.60865 -67.69191 11990 ft 170 kts 265°
2026-04-13 12:59 11.60766 -67.70397 11991 ft 170 kts 265°
2026-04-13 13:00 11.60667 -67.71600 11993 ft 170 kts 265°
2026-04-13 13:00 11.60567 -67.72803 11991 ft 170 kts 265°
2026-04-13 13:00 11.60468 -67.74006 11994 ft 170 kts 265°
2026-04-13 13:00 11.60370 -67.75194 11987 ft 170 kts 265°
2026-04-13 13:01 11.60270 -67.76397 11988 ft 170 kts 265°
2026-04-13 13:01 11.60171 -67.77602 11989 ft 170 kts 265°
2026-04-13 13:01 11.60072 -67.78806 11988 ft 170 kts 265°
2026-04-13 13:01 11.59973 -67.80007 11991 ft 170 kts 265°
2026-04-13 13:02 11.59874 -67.81207 11992 ft 170 kts 265°
2026-04-13 13:02 11.59774 -67.82411 11991 ft 170 kts 265°
2026-04-13 13:02 11.59675 -67.83612 11989 ft 170 kts 265°
2026-04-13 13:02 11.59576 -67.84817 11992 ft 170 kts 265°
2026-04-13 13:03 11.59477 -67.86021 11993 ft 171 kts 265°
2026-04-13 13:03 11.59378 -67.87226 11991 ft 171 kts 265°
2026-04-13 13:03 11.59279 -67.88430 11991 ft 170 kts 265°
2026-04-13 13:03 11.59181 -67.89637 11991 ft 170 kts 265°
2026-04-13 13:04 11.59081 -67.90841 11990 ft 170 kts 265°
2026-04-13 13:04 11.58982 -67.92047 11991 ft 170 kts 265°
2026-04-13 13:04 11.58915 -67.92842 11989 ft 170 kts 265°
2026-04-13 13:04 11.58815 -67.94048 11995 ft 171 kts 265°
2026-04-13 13:05 11.58717 -67.95253 11992 ft 171 kts 265°
2026-04-13 13:05 11.58618 -67.96463 11993 ft 171 kts 265°
2026-04-13 13:05 11.58487 -67.98061 11991 ft 171 kts 265°
2026-04-13 13:05 11.58388 -67.99265 11995 ft 170 kts 265°
2026-04-13 13:06 11.58322 -68.00080 11992 ft 170 kts 265°
2026-04-13 13:06 11.58225 -68.01284 11995 ft 171 kts 265°
2026-04-13 13:06 11.58125 -68.02489 11995 ft 171 kts 265°
2026-04-13 13:06 11.58027 -68.03697 11995 ft 171 kts 265°
2026-04-13 13:07 11.57927 -68.04905 11994 ft 171 kts 265°
2026-04-13 13:07 11.57828 -68.06112 11994 ft 171 kts 265°
2026-04-13 13:07 11.57731 -68.07319 11996 ft 171 kts 265°
2026-04-13 13:07 11.57634 -68.08525 11992 ft 171 kts 265°
2026-04-13 13:08 11.57536 -68.09728 11996 ft 170 kts 265°
2026-04-13 13:08 11.57439 -68.10934 11995 ft 171 kts 265°
2026-04-13 13:08 11.57341 -68.12141 11993 ft 171 kts 265°
2026-04-13 13:08 11.57243 -68.13347 11994 ft 171 kts 265°
2026-04-13 13:09 11.57146 -68.14553 11994 ft 171 kts 265°
2026-04-13 13:09 11.57049 -68.15761 11994 ft 171 kts 265°
2026-04-13 13:09 11.56954 -68.16965 11993 ft 170 kts 265°
2026-04-13 13:09 11.56857 -68.18170 11993 ft 171 kts 265°
2026-04-13 13:10 11.56761 -68.19359 11993 ft 170 kts 265°
2026-04-13 13:10 11.56664 -68.20562 11993 ft 170 kts 265°
2026-04-13 13:10 11.56566 -68.21784 11994 ft 170 kts 265°
2026-04-13 13:10 11.56472 -68.22972 11995 ft 171 kts 265°
2026-04-13 13:11 11.56376 -68.24179 11994 ft 171 kts 265°
2026-04-13 13:11 11.56279 -68.25387 11994 ft 171 kts 265°
2026-04-13 13:11 11.56184 -68.26593 11993 ft 171 kts 265°
2026-04-13 13:11 11.56087 -68.27800 11990 ft 171 kts 265°
2026-04-13 13:12 11.55992 -68.29008 11992 ft 171 kts 265°
2026-04-13 13:12 11.55896 -68.30213 11991 ft 171 kts 265°
2026-04-13 13:12 11.55798 -68.31423 11992 ft 171 kts 265°
2026-04-13 13:12 11.55703 -68.32631 11990 ft 171 kts 265°
2026-04-13 13:13 11.55608 -68.33842 11991 ft 171 kts 265°
2026-04-13 13:13 11.55513 -68.35050 11990 ft 171 kts 265°
2026-04-13 13:13 11.55417 -68.36260 11990 ft 171 kts 265°
2026-04-13 13:13 11.55321 -68.37469 11993 ft 171 kts 265°
2026-04-13 13:14 11.55225 -68.38676 11993 ft 171 kts 265°
2026-04-13 13:14 11.55129 -68.39887 11994 ft 171 kts 265°
2026-04-13 13:14 11.55036 -68.41097 11993 ft 171 kts 265°
2026-04-13 13:14 11.54942 -68.42293 11993 ft 171 kts 265°
2026-04-13 13:15 11.54846 -68.43506 11991 ft 171 kts 265°
2026-04-13 13:15 11.54751 -68.44717 11993 ft 171 kts 265°
2026-04-13 13:15 11.54657 -68.45926 11993 ft 171 kts 265°
2026-04-13 13:15 11.54562 -68.47136 11994 ft 171 kts 265°
2026-04-13 13:16 11.54467 -68.48346 11993 ft 171 kts 266°
2026-04-13 13:16 11.54374 -68.49557 11993 ft 171 kts 265°
2026-04-13 13:16 11.54280 -68.50768 11994 ft 171 kts 265°
2026-04-13 13:16 11.54188 -68.51981 11995 ft 171 kts 265°
2026-04-13 13:17 11.54097 -68.53193 11993 ft 171 kts 265°
2026-04-13 13:17 11.54005 -68.54403 11990 ft 171 kts 265°
2026-04-13 13:17 11.53913 -68.55614 11990 ft 171 kts 266°
2026-04-13 13:17 11.53823 -68.56826 11989 ft 171 kts 265°
2026-04-13 13:18 11.53733 -68.58020 11991 ft 171 kts 266°
2026-04-13 13:18 11.53641 -68.59231 11989 ft 171 kts 266°
2026-04-13 13:18 11.53549 -68.60443 11988 ft 172 kts 265°
2026-04-13 13:18 11.53458 -68.61657 11986 ft 172 kts 266°
2026-04-13 13:19 11.53367 -68.62871 11987 ft 172 kts 266°
2026-04-13 13:19 11.53275 -68.64085 11986 ft 172 kts 265°
2026-04-13 13:19 11.53166 -68.65296 11989 ft 172 kts 265°
2026-04-13 13:19 11.53053 -68.66505 11988 ft 172 kts 265°
2026-04-13 13:20 11.52940 -68.67718 11989 ft 172 kts 265°
2026-04-13 13:20 11.52827 -68.68931 11988 ft 172 kts 265°
2026-04-13 13:20 11.52715 -68.70145 11990 ft 172 kts 265°
2026-04-13 13:20 11.52601 -68.71358 11989 ft 172 kts 265°
2026-04-13 13:21 11.52487 -68.72572 11988 ft 172 kts 265°
2026-04-13 13:21 11.52374 -68.73785 11989 ft 172 kts 265°
2026-04-13 13:21 11.52261 -68.74998 11991 ft 172 kts 265°
2026-04-13 13:21 11.52147 -68.76212 11989 ft 172 kts 265°
2026-04-13 13:22 11.52034 -68.77412 11989 ft 172 kts 265°
2026-04-13 13:22 11.51921 -68.78627 11991 ft 172 kts 265°
2026-04-13 13:22 11.51809 -68.79842 11988 ft 172 kts 265°
2026-04-13 13:22 11.51700 -68.81060 11988 ft 172 kts 265°
2026-04-13 13:23 11.51591 -68.82278 11990 ft 172 kts 265°
2026-04-13 13:23 11.51482 -68.83492 11986 ft 172 kts 265°
2026-04-13 13:23 11.51373 -68.84708 11988 ft 172 kts 265°
2026-04-13 13:23 11.51263 -68.85928 11988 ft 172 kts 265°
2026-04-13 13:24 11.51154 -68.87144 11989 ft 172 kts 265°
2026-04-13 13:24 11.51044 -68.88360 11991 ft 173 kts 265°
2026-04-13 13:24 11.50937 -68.89579 11988 ft 172 kts 265°
2026-04-13 13:24 11.50831 -68.90797 11987 ft 172 kts 265°
2026-04-13 13:25 11.50726 -68.92016 11987 ft 172 kts 265°
2026-04-13 13:25 11.50620 -68.93235 11987 ft 172 kts 265°
2026-04-13 13:25 11.50409 -68.95665 11988 ft 172 kts 265°
2026-04-13 13:26 11.50303 -68.96884 11987 ft 172 kts 265°
2026-04-13 13:26 11.50198 -68.98102 11986 ft 173 kts 265°
2026-04-13 13:26 11.50092 -68.99321 11987 ft 173 kts 265°
2026-04-13 13:26 11.49987 -69.00540 11986 ft 173 kts 265°
2026-04-13 13:27 11.49882 -69.01742 11984 ft 173 kts 265°
2026-04-13 13:27 11.49776 -69.02960 11984 ft 173 kts 265°
2026-04-13 13:27 11.49670 -69.04179 11985 ft 173 kts 265°
2026-04-13 13:27 11.49564 -69.05399 11985 ft 173 kts 265°
2026-04-13 13:28 11.49459 -69.06619 11984 ft 173 kts 265°
2026-04-13 13:28 11.49355 -69.07840 11986 ft 173 kts 265°
2026-04-13 13:28 11.49250 -69.09061 11984 ft 173 kts 265°
2026-04-13 13:28 11.49144 -69.10280 11984 ft 173 kts 265°
2026-04-13 13:29 11.49037 -69.11502 11985 ft 173 kts 265°
2026-04-13 13:29 11.48932 -69.12721 11984 ft 173 kts 265°
2026-04-13 13:29 11.48827 -69.13946 11985 ft 173 kts 265°
2026-04-13 13:29 11.48723 -69.15169 11984 ft 173 kts 265°
2026-04-13 13:30 11.48619 -69.16392 11985 ft 173 kts 265°
2026-04-13 13:30 11.48516 -69.17616 11984 ft 173 kts 265°
2026-04-13 13:30 11.48413 -69.18839 11985 ft 173 kts 265°
2026-04-13 13:30 11.48312 -69.20061 11983 ft 173 kts 265°
2026-04-13 13:31 11.48211 -69.21286 11984 ft 173 kts 265°
2026-04-13 13:31 11.48110 -69.22511 11983 ft 173 kts 265°
2026-04-13 13:31 11.48010 -69.23732 11985 ft 173 kts 265°
2026-04-13 13:31 11.47911 -69.24955 11978 ft 171 kts 265°
2026-04-13 13:32 11.47817 -69.26144 11669 ft 172 kts 265°
2026-04-13 13:32 11.47722 -69.27362 11266 ft 172 kts 265°
2026-04-13 13:32 11.47629 -69.28578 10828 ft 172 kts 265°
2026-04-13 13:32 11.47514 -69.29790 10416 ft 172 kts 263°
2026-04-13 13:33 11.47374 -69.31002 10006 ft 172 kts 263°
2026-04-13 13:33 11.47237 -69.32209 9593 ft 171 kts 263°
2026-04-13 13:33 11.47110 -69.33415 9174 ft 171 kts 263°
2026-04-13 13:33 11.47000 -69.34614 8742 ft 170 kts 263°
2026-04-13 13:34 11.46904 -69.35815 8266 ft 170 kts 262°
2026-04-13 13:34 11.46827 -69.37015 7823 ft 170 kts 263°
2026-04-13 13:34 11.46767 -69.38216 7390 ft 169 kts 263°
2026-04-13 13:34 11.46716 -69.39408 6902 ft 169 kts 263°
2026-04-13 13:35 11.46675 -69.40604 6444 ft 168 kts 264°
2026-04-13 13:35 11.46637 -69.41785 5921 ft 167 kts 264°
2026-04-13 13:35 11.46598 -69.42978 5400 ft 169 kts 264°
2026-04-13 13:35 11.46499 -69.44176 4890 ft 169 kts 257°
2026-04-13 13:36 11.46263 -69.45341 4389 ft 168 kts 253°
2026-04-13 13:36 11.45992 -69.46499 3909 ft 168 kts 254°
2026-04-13 13:36 11.45722 -69.47661 3473 ft 168 kts 254°
2026-04-13 13:36 11.45449 -69.48813 3068 ft 165 kts 253°
2026-04-13 13:37 11.45163 -69.49960 2607 ft 168 kts 253°
2026-04-13 13:37 11.44888 -69.51123 2199 ft 168 kts 256°
2026-04-13 13:37 11.44659 -69.52272 1814 ft 164 kts 257°
2026-04-13 13:37 11.44440 -69.53415 1372 ft 165 kts 257°
2026-04-13 13:38 11.44216 -69.54560 1095 ft 163 kts 259°
2026-04-13 13:38 11.43979 -69.55658 1079 ft 156 kts 256°
2026-04-13 13:38 11.43744 -69.56759 1084 ft 161 kts 257°
2026-04-13 13:38 11.43498 -69.57879 1088 ft 162 kts 258°
2026-04-13 13:39 11.43251 -69.58955 1070 ft 149 kts 257°
2026-04-13 13:39 11.43032 -69.59912 1070 ft 128 kts 258°
2026-04-13 13:39 11.42852 -69.60764 1073 ft 119 kts 256°
2026-04-13 13:39 11.42697 -69.61582 1072 ft 115 kts 258°
2026-04-13 13:40 11.42535 -69.62368 1073 ft 114 kts 258°
2026-04-13 13:40 11.42439 -69.63125 1036 ft 100 kts 261°
2026-04-13 13:40 11.42313 -69.63834 1033 ft 104 kts 257°
2026-04-13 13:40 11.42179 -69.64596 938 ft 114 kts 258°
2026-04-13 13:41 11.42026 -69.65395 878 ft 115 kts 255°
2026-04-13 13:41 11.41867 -69.66191 563 ft 116 kts 260°
2026-04-13 13:41 11.41723 -69.66966 230 ft 107 kts 254°
2026-04-13 13:41 11.41574 -69.67678 63 ft 95 kts 257°
2026-04-13 13:42 11.41491 -69.68092 55 ft 27 kts 258°
2026-04-13 13:42 11.41483 -69.68215 51 ft 10 kts 244°
2026-04-13 13:42 11.41470 -69.68178 49 ft 11 kts 76°
2026-04-13 13:42 11.41487 -69.68104 55 ft 15 kts 76°
2026-04-13 13:43 11.41503 -69.68027 55 ft 12 kts 80°
2026-04-13 13:43 11.41476 -69.67962 56 ft 12 kts 153°
2026-04-13 13:43 11.41437 -69.67909 55 ft 11 kts 80°
2026-04-13 13:43 11.41450 -69.67842 55 ft 7 kts 79°
2026-04-13 13:44 11.41455 -69.67808 52 ft 3 kts 106°
2026-04-13 13:44 11.41443 -69.67798 55 ft 1 kts 165°
2026-04-13 13:44 11.41442 -69.67798 55 ft 0 kts 164°
2026-04-13 17:00 11.41450 -69.67800 55 ft 2 kts 164°
2026-04-13 17:01 11.41465 -69.67805 54 ft 2 kts 164°
2026-04-13 17:01 11.41467 -69.67838 56 ft 10 kts 330°
2026-04-13 17:02 11.41482 -69.67842 56 ft 0 kts 342°
2026-04-13 17:02 11.41490 -69.67845 56 ft 5 kts 343°
2026-04-13 17:02 11.41523 -69.67866 56 ft 10 kts 290°
2026-04-13 17:02 11.41511 -69.68004 55 ft 27 kts 257°
2026-04-13 17:03 11.41469 -69.68211 55 ft 29 kts 259°
2026-04-13 17:03 11.41429 -69.68409 54 ft 30 kts 261°
2026-04-13 17:03 11.41389 -69.68617 53 ft 29 kts 259°
2026-04-13 17:03 11.41348 -69.68833 53 ft 31 kts 259°
2026-04-13 17:04 11.41327 -69.69015 54 ft 21 kts 257°
2026-04-13 17:04 11.41299 -69.69065 52 ft 5 kts 68°
2026-04-13 17:04 11.41307 -69.69043 52 ft 0 kts 78°
2026-04-13 17:05 11.41323 -69.68965 50 ft 38 kts 77°
2026-04-13 17:05 11.41402 -69.68494 180 ft 85 kts 81°
2026-04-13 17:05 11.41467 -69.67957 817 ft 70 kts 79°
2026-04-13 17:06 11.41596 -69.67433 1277 ft 82 kts 70°
2026-04-13 17:06 11.42109 -69.67264 1869 ft 101 kts 343°
2026-04-13 17:06 11.42512 -69.67840 2437 ft 105 kts 280°
2026-04-13 17:06 11.42241 -69.68550 2821 ft 116 kts 218°
2026-04-13 17:07 11.41682 -69.69087 3477 ft 100 kts 213°
2026-04-13 17:07 11.41094 -69.69615 3853 ft 121 kts 211°
2026-04-13 17:07 11.40457 -69.70160 4420 ft 118 kts 214°
2026-04-13 17:07 11.39956 -69.70810 4950 ft 124 kts 250°
2026-04-13 17:08 11.39781 -69.71666 5459 ft 122 kts 253°
2026-04-13 17:08 11.39651 -69.72517 5958 ft 121 kts 255°
2026-04-13 17:08 11.39389 -69.73300 6417 ft 115 kts 236°
2026-04-13 17:08 11.39045 -69.74032 6858 ft 114 kts 240°
2026-04-13 17:09 11.38732 -69.74776 7310 ft 114 kts 242°
2026-04-13 17:09 11.38418 -69.75519 7741 ft 114 kts 241°
2026-04-13 17:09 11.38109 -69.76257 8145 ft 113 kts 242°
2026-04-13 17:09 11.37806 -69.76992 8557 ft 113 kts 242°
2026-04-13 17:10 11.37501 -69.77732 8959 ft 113 kts 241°
2026-04-13 17:10 11.37192 -69.78472 9346 ft 114 kts 243°
2026-04-13 17:10 11.36882 -69.79218 9736 ft 114 kts 242°
2026-04-13 17:10 11.36572 -69.79967 10082 ft 115 kts 243°
2026-04-13 17:11 11.36262 -69.80716 10429 ft 115 kts 242°
2026-04-13 17:11 11.35950 -69.81470 10758 ft 116 kts 243°
2026-04-13 17:11 11.35637 -69.82228 11098 ft 116 kts 243°
2026-04-13 17:11 11.35319 -69.82986 11450 ft 117 kts 244°
2026-04-13 17:12 11.35004 -69.83751 11776 ft 117 kts 244°
2026-04-13 17:12 11.34681 -69.84531 11995 ft 129 kts 244°
2026-04-13 17:12 11.34307 -69.85455 12011 ft 152 kts 246°
2026-04-13 17:12 11.33884 -69.86500 12011 ft 166 kts 246°
2026-04-13 17:13 11.33424 -69.87613 12003 ft 174 kts 246°
2026-04-13 17:13 11.32942 -69.88767 11994 ft 179 kts 245°
2026-04-13 17:13 11.32454 -69.89941 11987 ft 181 kts 245°
2026-04-13 17:13 11.31970 -69.91106 11989 ft 181 kts 246°
2026-04-13 17:14 11.31477 -69.92290 11983 ft 182 kts 245°
2026-04-13 17:14 11.30984 -69.93478 11978 ft 182 kts 245°
2026-04-13 17:14 11.30491 -69.94669 11977 ft 182 kts 246°
2026-04-13 17:14 11.29999 -69.95858 11973 ft 182 kts 246°
2026-04-13 17:15 11.29505 -69.97049 11967 ft 182 kts 245°
2026-04-13 17:15 11.29012 -69.98233 11968 ft 182 kts 245°
2026-04-13 17:15 11.28517 -69.99426 11963 ft 183 kts 245°
2026-04-13 17:15 11.28022 -70.00621 11962 ft 182 kts 246°
2026-04-13 17:16 11.27530 -70.01809 11955 ft 182 kts 245°
2026-04-13 17:16 11.27032 -70.03001 11955 ft 183 kts 245°
2026-04-13 17:16 11.26539 -70.04190 11954 ft 182 kts 245°
2026-04-13 17:16 11.26046 -70.05380 11956 ft 182 kts 245°
2026-04-13 17:17 11.25553 -70.06564 11955 ft 181 kts 246°
2026-04-13 17:17 11.25061 -70.07748 11956 ft 181 kts 245°
2026-04-13 17:17 11.24570 -70.08930 11953 ft 181 kts 245°
2026-04-13 17:17 11.24077 -70.10116 11952 ft 182 kts 245°
2026-04-13 17:18 11.23585 -70.11303 11954 ft 181 kts 246°
2026-04-13 17:18 11.23093 -70.12486 11955 ft 181 kts 245°
2026-04-13 17:18 11.22601 -70.13668 11957 ft 181 kts 245°
2026-04-13 17:18 11.22115 -70.14837 11955 ft 181 kts 245°
2026-04-13 17:19 11.21622 -70.16019 11955 ft 181 kts 245°
2026-04-13 17:19 11.21132 -70.17204 11955 ft 182 kts 245°
2026-04-13 17:19 11.20639 -70.18385 11953 ft 181 kts 246°
2026-04-13 17:19 11.20146 -70.19568 11951 ft 181 kts 245°
2026-04-13 17:20 11.19657 -70.20747 11949 ft 180 kts 245°
2026-04-13 17:20 11.19168 -70.21923 11951 ft 180 kts 245°
2026-04-13 17:20 11.18678 -70.23099 11951 ft 181 kts 245°
2026-04-13 17:20 11.18353 -70.23879 11952 ft 182 kts 246°
2026-04-13 17:21 11.17858 -70.25067 11950 ft 183 kts 245°
2026-04-13 17:21 11.17365 -70.26254 11949 ft 181 kts 245°
2026-04-13 17:21 11.16874 -70.27434 11948 ft 180 kts 245°
2026-04-13 17:21 11.16383 -70.28610 11949 ft 180 kts 245°
2026-04-13 17:22 11.15735 -70.30167 11949 ft 180 kts 245°
2026-04-13 17:22 11.15404 -70.30962 11951 ft 180 kts 245°
2026-04-13 17:22 11.14915 -70.32137 11949 ft 180 kts 245°
2026-04-13 17:22 11.14427 -70.33307 11947 ft 180 kts 245°
2026-04-13 17:23 11.13939 -70.34479 11952 ft 180 kts 245°
2026-04-13 17:23 11.13449 -70.35654 11952 ft 180 kts 245°
2026-04-13 17:23 11.12966 -70.36812 11950 ft 180 kts 245°
2026-04-13 17:23 11.12478 -70.37987 11948 ft 180 kts 245°
2026-04-13 17:24 11.11989 -70.39159 11949 ft 180 kts 245°
2026-04-13 17:24 11.11500 -70.40331 11949 ft 180 kts 245°
2026-04-13 17:24 11.11012 -70.41500 11949 ft 179 kts 244°
2026-04-13 17:24 11.10524 -70.42672 11947 ft 180 kts 244°
2026-04-13 17:25 11.10035 -70.43844 11950 ft 180 kts 245°
2026-04-13 17:25 11.09544 -70.45019 11950 ft 180 kts 245°
2026-04-13 17:25 11.09054 -70.46192 11949 ft 180 kts 245°
2026-04-13 17:25 11.08566 -70.47365 11954 ft 180 kts 245°
2026-04-13 17:26 11.08073 -70.48548 11952 ft 183 kts 245°
2026-04-13 17:26 11.07574 -70.49743 11948 ft 184 kts 245°
2026-04-13 17:26 11.07075 -70.50942 11949 ft 183 kts 245°
2026-04-13 17:26 11.06912 -70.51333 11946 ft 183 kts 245°
2026-04-13 17:27 11.05951 -70.53630 11949 ft 182 kts 245°
2026-04-13 17:27 11.05457 -70.54811 11944 ft 181 kts 245°
2026-04-13 17:27 11.04972 -70.55972 11947 ft 180 kts 245°
2026-04-13 17:28 11.04483 -70.57146 11948 ft 180 kts 245°
2026-04-13 17:28 11.03992 -70.58322 11947 ft 180 kts 245°
2026-04-13 17:28 11.03500 -70.59495 11945 ft 180 kts 245°
2026-04-13 17:28 11.03010 -70.60671 11944 ft 180 kts 245°
2026-04-13 17:29 11.02519 -70.61845 11947 ft 180 kts 245°
2026-04-13 17:29 11.02028 -70.63022 11943 ft 180 kts 245°
2026-04-13 17:29 11.01537 -70.64196 11943 ft 180 kts 245°
2026-04-13 17:29 11.01045 -70.65371 11944 ft 181 kts 245°
2026-04-13 17:30 11.00554 -70.66548 11946 ft 181 kts 246°
2026-04-13 17:30 11.00063 -70.67721 11946 ft 180 kts 245°
2026-04-13 17:30 10.99573 -70.68893 11943 ft 180 kts 245°
2026-04-13 17:30 10.99083 -70.70062 11944 ft 180 kts 245°
2026-04-13 17:31 10.98593 -70.71233 11942 ft 180 kts 245°
2026-04-13 17:31 10.98105 -70.72404 11942 ft 180 kts 245°
2026-04-13 17:31 10.97617 -70.73573 11946 ft 180 kts 245°
2026-04-13 17:31 10.97124 -70.74747 11947 ft 180 kts 245°
2026-04-13 17:32 10.96634 -70.75918 11948 ft 180 kts 245°
2026-04-13 17:32 10.96142 -70.77091 11947 ft 180 kts 245°
2026-04-13 17:32 10.95652 -70.78263 11948 ft 180 kts 245°
2026-04-13 17:32 10.95162 -70.79433 11943 ft 180 kts 245°
2026-04-13 17:33 10.94680 -70.80586 11943 ft 179 kts 245°
2026-04-13 17:33 10.94193 -70.81750 11944 ft 179 kts 245°
2026-04-13 17:33 10.93705 -70.82914 11943 ft 179 kts 245°
2026-04-13 17:33 10.93217 -70.84078 11945 ft 179 kts 245°
2026-04-13 17:34 10.92240 -70.86409 11943 ft 179 kts 246°
2026-04-13 17:34 10.91753 -70.87573 11945 ft 179 kts 246°
2026-04-13 17:34 10.91265 -70.88742 11950 ft 180 kts 246°
2026-04-13 17:35 10.90774 -70.89909 11949 ft 180 kts 245°
2026-04-13 17:35 10.90284 -70.91078 11948 ft 179 kts 245°
2026-04-13 17:35 10.89796 -70.92243 11947 ft 179 kts 246°
2026-04-13 17:35 10.89308 -70.93407 11946 ft 179 kts 246°
2026-04-13 17:36 10.88820 -70.94567 11945 ft 178 kts 245°
2026-04-13 17:36 10.88334 -70.95728 11943 ft 178 kts 245°
2026-04-13 17:36 10.87847 -70.96889 11943 ft 178 kts 245°
2026-04-13 17:36 10.87361 -70.98046 11943 ft 178 kts 246°
2026-04-13 17:37 10.86875 -70.99204 11944 ft 178 kts 246°
2026-04-13 17:37 10.86390 -71.00361 11943 ft 178 kts 246°
2026-04-13 17:37 10.85903 -71.01519 11945 ft 178 kts 246°
2026-04-13 17:37 10.85417 -71.02681 11948 ft 178 kts 246°
2026-04-13 17:38 10.84932 -71.03838 11948 ft 178 kts 246°
2026-04-13 17:38 10.84446 -71.04994 11950 ft 178 kts 246°
2026-04-13 17:38 10.83959 -71.06151 11948 ft 178 kts 246°
2026-04-13 17:38 10.83473 -71.07311 11944 ft 178 kts 246°
2026-04-13 17:39 10.82987 -71.08470 11944 ft 178 kts 246°
2026-04-13 17:39 10.82502 -71.09625 11945 ft 178 kts 246°
2026-04-13 17:39 10.82016 -71.10781 11948 ft 178 kts 246°
2026-04-13 17:39 10.81531 -71.11936 11948 ft 177 kts 246°
2026-04-13 17:40 10.81053 -71.13073 11950 ft 177 kts 246°
2026-04-13 17:40 10.80567 -71.14228 11949 ft 177 kts 246°
2026-04-13 17:40 10.80083 -71.15381 11948 ft 177 kts 246°
2026-04-13 17:40 10.79599 -71.16535 11949 ft 177 kts 246°
2026-04-13 17:41 10.79114 -71.17686 11950 ft 177 kts 246°
2026-04-13 17:41 10.78629 -71.18840 11949 ft 177 kts 246°
2026-04-13 17:41 10.78145 -71.19990 11947 ft 177 kts 246°
2026-04-13 17:41 10.77661 -71.21141 11948 ft 176 kts 246°
2026-04-13 17:42 10.77179 -71.22286 11948 ft 176 kts 246°
2026-04-13 17:42 10.76697 -71.23434 11947 ft 176 kts 246°
2026-04-13 17:42 10.76215 -71.24578 11949 ft 176 kts 246°
2026-04-13 17:42 10.75734 -71.25723 11947 ft 176 kts 246°
2026-04-13 17:43 10.75252 -71.26870 11947 ft 176 kts 246°
2026-04-13 17:43 10.74770 -71.28014 11947 ft 176 kts 246°
2026-04-13 17:43 10.74289 -71.29158 11947 ft 176 kts 246°
2026-04-13 17:43 10.73808 -71.30300 11950 ft 176 kts 246°
2026-04-13 17:44 10.73327 -71.31444 11948 ft 176 kts 246°
2026-04-13 17:44 10.72852 -71.32571 11946 ft 176 kts 246°
2026-04-13 17:44 10.72373 -71.33709 11918 ft 173 kts 246°
2026-04-13 17:44 10.71897 -71.34843 11702 ft 176 kts 246°
2026-04-13 17:45 10.71416 -71.35982 11527 ft 175 kts 246°
2026-04-13 17:45 10.70936 -71.37120 11355 ft 174 kts 246°
2026-04-13 17:45 10.70426 -71.38234 11073 ft 174 kts 239°
2026-04-13 17:45 10.69752 -71.39252 10824 ft 173 kts 233°
2026-04-13 17:46 10.69037 -71.40236 10572 ft 173 kts 232°
2026-04-13 17:46 10.68324 -71.41217 10322 ft 172 kts 232°
2026-04-13 17:46 10.67615 -71.42198 10078 ft 172 kts 232°
2026-04-13 17:46 10.66911 -71.43180 9844 ft 172 kts 232°
2026-04-13 17:47 10.66211 -71.44160 9612 ft 171 kts 232°
2026-04-13 17:47 10.65515 -71.45137 9369 ft 170 kts 232°
2026-04-13 17:47 10.64819 -71.46110 9140 ft 170 kts 232°
2026-04-13 17:47 10.64127 -71.47085 8923 ft 170 kts 232°
2026-04-13 17:48 10.63440 -71.48056 8719 ft 169 kts 233°
2026-04-13 17:48 10.62753 -71.49027 8528 ft 168 kts 233°
2026-04-13 17:48 10.62069 -71.49991 8325 ft 168 kts 232°
2026-04-13 17:48 10.61385 -71.50954 8125 ft 168 kts 232°
2026-04-13 17:49 10.60709 -71.51902 7928 ft 168 kts 232°
2026-04-13 17:49 10.60027 -71.52861 7750 ft 167 kts 232°
2026-04-13 17:49 10.59340 -71.53828 7567 ft 166 kts 232°
2026-04-13 17:49 10.58673 -71.54770 7392 ft 166 kts 232°
2026-04-13 17:50 10.57999 -71.55719 7223 ft 165 kts 232°
2026-04-13 17:50 10.57327 -71.56668 7065 ft 165 kts 232°
2026-04-13 17:50 10.56664 -71.57608 6802 ft 165 kts 233°
2026-04-13 17:50 10.55997 -71.58551 6554 ft 164 kts 232°
2026-04-13 17:51 10.55333 -71.59492 6304 ft 164 kts 233°
2026-04-13 17:51 10.54672 -71.60430 6056 ft 163 kts 232°
2026-04-13 17:51 10.54011 -71.61368 5805 ft 163 kts 232°
2026-04-13 17:51 10.53346 -71.62302 5581 ft 163 kts 232°
2026-04-13 17:52 10.52681 -71.63233 5378 ft 163 kts 232°
2026-04-13 17:52 10.52021 -71.64159 5190 ft 162 kts 233°
2026-04-13 17:52 10.51359 -71.65088 4982 ft 162 kts 232°
2026-04-13 17:52 10.50695 -71.66016 4784 ft 162 kts 232°
2026-04-13 17:53 10.50258 -71.66630 4666 ft 162 kts 232°
2026-04-13 17:53 10.49374 -71.67864 4393 ft 162 kts 232°
2026-04-13 17:53 10.48703 -71.68785 4162 ft 161 kts 232°
2026-04-13 17:53 10.48035 -71.69687 3892 ft 159 kts 232°
2026-04-13 17:54 10.47364 -71.70580 3462 ft 159 kts 232°
2026-04-13 17:54 10.46686 -71.71465 3026 ft 158 kts 233°
2026-04-13 17:54 10.46006 -71.72342 2580 ft 158 kts 233°
2026-04-13 17:54 10.45326 -71.73216 2222 ft 157 kts 233°
2026-04-13 17:55 10.44655 -71.74066 1950 ft 156 kts 233°
2026-04-13 17:55 10.43972 -71.74918 1627 ft 156 kts 232°
2026-04-13 17:55 10.43286 -71.75753 1420 ft 147 kts 232°
2026-04-13 17:55 10.42975 -71.76619 1407 ft 121 kts 279°
2026-04-13 17:56 10.43190 -71.77395 1402 ft 108 kts 306°
2026-04-13 17:56 10.43657 -71.78017 1433 ft 115 kts 325°
2026-04-13 17:56 10.44377 -71.78119 1432 ft 108 kts 28°
2026-04-13 17:56 10.44939 -71.77602 1436 ft 114 kts 43°
2026-04-13 17:57 10.45619 -71.77216 1450 ft 115 kts 16°
2026-04-13 17:57 10.46386 -71.76910 1430 ft 121 kts 21°
2026-04-13 17:57 10.47170 -71.76587 1445 ft 123 kts 22°
2026-04-13 17:57 10.47956 -71.76251 1442 ft 120 kts 23°
2026-04-13 17:58 10.48697 -71.75937 1423 ft 112 kts 23°
2026-04-13 17:58 10.49401 -71.75638 1423 ft 107 kts 23°
2026-04-13 17:58 10.50008 -71.75376 1314 ft 87 kts 21°
2026-04-13 17:58 10.50538 -71.75149 1193 ft 80 kts 21°
2026-04-13 17:59 10.51032 -71.74944 1083 ft 77 kts 22°
2026-04-13 17:59 10.51505 -71.74747 985 ft 73 kts 22°
2026-04-13 17:59 10.51978 -71.74541 901 ft 79 kts 21°
2026-04-13 17:59 10.52519 -71.74300 770 ft 86 kts 21°
2026-04-13 18:00 10.53071 -71.74066 647 ft 85 kts 22°
2026-04-13 18:00 10.53621 -71.73835 527 ft 86 kts 23°
2026-04-13 18:00 10.54180 -71.73597 394 ft 86 kts 22°
2026-04-13 18:00 10.54730 -71.73353 251 ft 84 kts 23°
2026-04-13 18:01 10.55194 -71.73160 224 ft 46 kts 22°
2026-04-13 18:01 10.55346 -71.73095 228 ft 21 kts 22°
2026-04-13 18:01 10.55518 -71.73020 229 ft 27 kts 22°
2026-04-13 18:01 10.55665 -71.72959 231 ft 19 kts 22°
2026-04-13 18:02 10.55745 -71.72907 230 ft 12 kts 53°
2026-04-13 18:02 10.55753 -71.72792 224 ft 19 kts 115°
2026-04-13 18:02 10.55681 -71.72756 221 ft 12 kts 196°
2026-04-13 18:02 10.55574 -71.72793 221 ft 18 kts 201°
2026-04-13 18:03 10.55463 -71.72841 219 ft 15 kts 191°
2026-04-13 18:03 10.55399 -71.72786 219 ft 15 kts 111°
2026-04-13 18:03 10.55367 -71.72700 220 ft 10 kts 97°
2026-04-13 18:03 10.55411 -71.72647 221 ft 12 kts 25°
2026-04-13 18:04 10.55474 -71.72617 221 ft 10 kts 38°
2026-04-13 18:04 10.55479 -71.72566 222 ft 6 kts 82°
2026-04-13 18:04 10.55493 -71.72527 222 ft 5 kts 70°
2026-04-13 18:04 10.55501 -71.72506 222 ft 0 kts 67°